{"data":{"norad_id":47762,"intl_designator":"2021-017AS","name":"STARLINK-2180","alt_names":[],"object_type":"PAYLOAD","status":"ACTIVE","operator":null,"country":"US","launch_date":"2021-03-04","launch_site_code":"AFETR","launch_vehicle":null,"mission":null,"orbit_class":"UNKNOWN","rcs_meters":null,"size_class":null,"mass_kg":null,"dimensions":null,"purposes":["comms"],"wikipedia_slug":null,"has_3d_model":false,"image_url":null,"decayed_at":null,"tle_current":{"epoch":"2026-09-10T05:02:34.106208Z","epoch_age_seconds":914683,"freshness":"AGED","line1":"1 47762U 21017AS  26253.21011697  .05332534  12212-4  85190-3 0  9995","line2":"2 47762  53.1329  23.3488 0011416 311.2481  48.7579 16.32740718306718","mean_motion":16.32740718,"eccentricity":0.0011416,"inclination_deg":53.1329,"raan_deg":23.3488,"arg_perigee_deg":311.2481,"mean_anomaly_deg":48.7579,"bstar":0.0008519,"rev_number":30671,"period_min":88.195264816076,"perigee_km":177.69202211443,"apogee_km":192.67739824311,"semimajor_km":6563.3217101788,"source":"CELESTRAK","updated_at":"2026-09-10T09:00:35.408748Z"}}}